Flag for U.S.A. Weather past 2 weeks in Fort Myers, Florida, U.S.A.

Now
69 °F

Clear.


Feels Like: 69 °F
Forecast: 70 / 88 °F
Wind: 6 mph from Northeast

Location: Page Field

Current Time: May 29, 2015 at 3:34:57 AM

Latest Report: May 29, 2015 at 2:53 AM


Visibility: 10 mi

Pressure: 30.06 "Hg

Humidity: 81%

Dew point: 63 °F

Location of Fort MyersLocation

Historic Weather in Fort Myers — Graph

°F

Fort Myers temperature yesterday

Maximum temperature yesterday: 91 °F (at 3:53 PM)
Minimum temperature yesterday: 69 °F (at 6:53 AM)
Average temperature yesterday: 80 °F

Past Weeks' High & Low Weather Summary

 TemperatureHumidityPressure
High93 °F (May 14, 4:53 PM)100% (May 24, 3:53 AM)30.20 "Hg (May 24, 3:53 AM)
Low69 °F (May 28, 6:53 AM)32% (May 27, 4:53 PM)29.94 "Hg (May 20, 5:53 PM)
Average81 °F71%30.10 "Hg
* Reported May 14 1:53 AM — May 29 1:53 AM, Fort Myers, Weather by CustomWeather, © 2015

Note: Actual official high and low records may vary slightly from our data, if they occured in-between our weather recording intervals... More about our weather records

Advertising

Fort Myers weather history for previous 24 hours

 ConditionsComfort  
Time TempWeatherWind HumidityBarometerVisibility
1:53 AM
Fri, May 29
71 °FClear.6 mph73%30.08 "Hg10 mi
12:53 AM72 °FClear.6 mph68%30.09 "Hg10 mi
11:53 PM
Thu, May 28
74 °FClear.6 mph64%30.09 "Hg10 mi
10:53 PM76 °FClear.6 mph60%30.09 "Hg10 mi
9:53 PM78 °FPassing clouds.8 mph58%30.07 "Hg10 mi
8:53 PM81 °FOvercast.12 mph53%30.06 "Hg10 mi
7:53 PM83 °FPartly sunny.14 mph51%30.05 "Hg10 mi
6:53 PM85 °FPassing clouds.14 mph50%30.03 "Hg10 mi
5:53 PM88 °FPassing clouds.9 mph38%30.02 "Hg10 mi
4:53 PM90 °FScattered clouds.12 mph35%30.03 "Hg10 mi
3:53 PM91 °FScattered clouds.13 mph33%30.04 "Hg10 mi
2:53 PM89 °FPartly sunny.15 mph36%30.06 "Hg10 mi
1:53 PM88 °FPartly sunny.13 mph35%30.08 "Hg10 mi
12:53 PM88 °FPassing clouds.14 mph35%30.10 "Hg10 mi
11:53 AM86 °FSunny.16 mph40%30.11 "Hg10 mi
10:53 AM83 °FScattered clouds.12 mph51%30.12 "Hg10 mi
9:53 AM81 °FSunny.14 mph56%30.11 "Hg10 mi
8:53 AM77 °FSunny.7 mph71%30.11 "Hg10 mi
7:53 AM72 °FSunny.6 mph81%30.10 "Hg10 mi
6:53 AM69 °FClear.5 mph90%30.08 "Hg10 mi
5:53 AM70 °FClear.8 mph87%30.08 "Hg10 mi
4:53 AM70 °FClear.7 mph93%30.07 "Hg10 mi
3:53 AM72 °FClear.7 mph87%30.07 "Hg10 mi
Weather by CustomWeather, © 2015

See weather overviewHow to use our weather pages